Weather History for Istrana, Italy

Change the Weather History Date:

Sunday, March 17, 2013

  Actual Average Record
Temperature  
Mean Temperature 40 °F -  
Max Temperature 46 °F 60 °F 73 °F (1997)
Min Temperature 33 °F 41 °F 32 °F (2006)
Degree Days  
Heating Degree Days 26    
Moisture  
Dew Point 33 °F    
Average Humidity 71    
Maximum Humidity 93    
Minimum Humidity 41    
Precipitation  
Precipitation 0.31 in 0.10 in - ()
Sea Level Pressure  
Sea Level Pressure 30.00 in    
Wind  
Wind Speed 4 mph ()    
Max Wind Speed 12 mph    
Max Gust Speed -    
Visibility 5.0 miles    
Events Rain    
Averages and records for this station are not official NWS values.
T = Trace of Precipitation, MM = Missing Value Source: Averaged Metar Reports

Daily Weather History Graph

Daily Weather History Graph

Search for Another Location

Airport:

Trip Planner

Search our weather history database for the weather conditions in past years. The results will help you decide how hot, cold, wet, or windy it might be!

Date:

Astronomy

Mar. 17, 2013 Rise Set
Actual Time 6:20 AM CET 6:20 PM CET
Civil Twilight 5:50 AM CET 6:49 PM CET
Nautical Twilight 5:16 AM CET 7:24 PM CET
Astronomical Twilight 4:40 AM CET 8:00 PM CET
Moon 9:04 AM CET (3/17) No Moon Set
Length of Visible Light 12h 58m
Length of Day
11h 59m
Waxing Crescent, 29% of the Moon is Illuminated
Mar 17
Waxing Crescent
Mar 19
First Quarter
Mar 27
Full
Apr 3
Last Quarter
Apr 10
New

Hourly Weather History & Observations

Time (CET) Temp. Dew Point Humidity Pressure Visibility Wind Dir Wind Speed Gust Speed Precip Events Conditions
12:55 AM 37.4 °F 30.2 °F 75% 30.09 in - North - - N/A   Mostly Cloudy
1:00 AM 37 °F 31 °F 70% 30.11 in 6 mi Calm Calm - -   Mostly Cloudy
1:55 AM 37.4 °F 32.0 °F 81% 30.09 in - North - - N/A   Mostly Cloudy
2:55 AM 37.4 °F 32.0 °F 81% 30.09 in - North - - N/A   Mostly Cloudy
3:55 AM 35.6 °F 32.0 °F 87% 30.06 in - North - - N/A   Mostly Cloudy
4:00 AM 36 °F 32 °F 78% 30.08 in 6 mi Calm Calm - -   Mostly Cloudy
5:55 AM 35.6 °F 32.0 °F 87% 30.04 in - North - - N/A   Mostly Cloudy
6:55 AM 33.8 °F 28.4 °F 81% 30.04 in - North - - N/A   Unknown
7:00 AM 34 °F 29 °F 75% 30.05 in 4 mi NNE 6.9 mph - -   Mist
7:55 AM 37.4 °F 32.0 °F 81% 30.04 in - North - - N/A   Mostly Cloudy
8:55 AM 41.0 °F 33.8 °F 76% 30.04 in - North - - N/A   Scattered Clouds
9:55 AM 44.6 °F 32.0 °F 61% 30.01 in - North - - N/A   Mostly Cloudy
10:00 AM 44 °F 31 °F 49% 30.04 in 6 mi NNE 10.4 mph - -   Scattered Clouds
10:55 AM 44.6 °F 30.2 °F 57% 30.01 in - North - - N/A   Mostly Cloudy
11:55 AM 44.6 °F 30.2 °F 57% 30.01 in - North - - N/A   Mostly Cloudy
12:55 PM 46.4 °F 30.2 °F 53% 30.01 in - North - - N/A   Mostly Cloudy
1:00 PM 46 °F 30 °F 41% 30.01 in 5 mi NE 10.4 mph - -   Mist
1:55 PM 48.2 °F 33.8 °F 58% 29.98 in - North - - N/A   Mostly Cloudy
2:55 PM 44.6 °F 32.0 °F 61% 29.95 in - North - - N/A   Mostly Cloudy
3:55 PM 46.4 °F 33.8 °F 62% 29.95 in - North - - N/A   Mostly Cloudy
4:00 PM 46 °F 34 °F 52% 29.97 in 6 mi ENE 6.9 mph - -   Overcast
4:55 PM 44.6 °F 33.8 °F 66% 29.95 in - North - - N/A   Overcast
5:55 PM 44.6 °F 35.6 °F 71% 29.95 in - North - - N/A   Mostly Cloudy
6:55 PM 42.8 °F 35.6 °F 76% 29.92 in - North - - N/A Rain Light Rain
7:00 PM 44 °F 35 °F 61% 29.94 in 4 mi North 3.5 mph - - Rain Light Rain
7:55 PM 41.0 °F 35.6 °F 81% 29.92 in - North - - N/A Rain Light Rain
8:55 PM 41.0 °F 37.4 °F 87% 29.92 in - North - - N/A Rain Light Rain
9:55 PM 39.2 °F 37.4 °F 93% 29.89 in - North - - N/A Rain Light Rain
10:00 PM 39 °F 36 °F 87% 29.91 in 3 mi NNE 11.5 mph - - Rain Light Rain
11:55 PM 37.4 °F 35.6 °F 93% 29.86 in - North - - N/A Rain Light Rain